Temperature
12 11 11 10 9 9 8 8 7 7 7 6 6 6 6 5 5 5 5 4 4 4 4 3 3 3 3 2 2 2 1 1 0 0 0 0 0 1 1 1 1 1 1
10 10 9 9 8 8 7 7 6 6 6 6 5 5 5 5 5 4 4 4 3 3 3 3 2 2 2 1 1 1 0 0 0 -0 -0 -0 -0 -0 -0 -0 -0 -0 -0
9 9 8 8 7 7 6 6 6 5 5 5 5 5 5 4 4 3 3 3 2 2 2 1 1 1 1 0 0 0 0 -0 -0 -1 -1 -1 -1 -0 -1 -1 -1 -1 -1
8 8 7 7 6 6 6 5 5 5 5 5 4 4 4 3 3 2 2 2 1 1 1 1 0 0 0 -0 -0 -0 -1 -1 -1 -1 -1 -1 -1 -0 -1 -1 -1 -1 -1
7 7 6 6 5 5 5 5 5 4 4 4 4 3 3 2 2 2 1 1 1 1 1 0 0 -0 -0 -1 -1 -1 -1 -1 -1 -1 -1 -1 -1 -1 -1 -1 -1 -1 -0
6 6 5 5 5 5 4 4 4 4 4 3 3 2 2 1 1 1 1 0 0 0 0 -0 -0 -0 -0 -1 -1 -1 -1 -1 -1 -1 -1 -1 -0 -0 -0 -0 -0 -0 -0
5 5 5 5 4 4 4 4 3 3 3 3 2 1 1 1 0 0 0 -0 -0 -0 -0 -1 -0 -1 -1 -1 -1 -1 -1 -1 -1 -0 -0 -0 -0 -0 -0 -0 -0 -0 -0
5 4 4 4 4 4 3 3 3 2 2 1 1 1 0 -0 -0 -0 -0 -0 -0 -1 -1 -1 -1 -1 -1 -1 -1 -1 -1 -0 -0 -0 0 0 0 -0 -0 -0 -0 -0 -0
4 4 4 4 4 3 3 3 2 2 1 1 0 -0 -0 -1 -1 -1 -1 -1 -1 -1 -1 -1 -1 -1 -1 -1 -1 -1 -1 -0 -0 0 0 -0 -0 -0 -0 -1 -1 -1 -1
4 4 4 3 3 3 2 2 1 1 1 0 -0 -1 -1 -1 -1 -1 -1 -1 -1 -1 -1 -1 -1 -1 -1 -1 -1 -1 -1 -0 -0 0 0 -0 -0 -0 -1 -1 -1 -1 -1
4 4 3 3 3 2 2 1 1 0 0 -0 -1 -1 -1 -1 -2 -2 -2 -2 -2 -2 -2 -1 -1 -1 -1 -1 -1 -1 -0 -0 -0 0 -0 -0 -0 -0 -1 -1 -1 -1 -1
4 4 3 3 2 2 1 1 1 0 -0 -0 -1 -1 -1 -2 -2 -2 -2 -2 -2 -2 -2 -2 -1 -1 -1 -1 -1 -0 -0 -0 0 0 -0 -0 -0 -1 -1 -1 -1 -1 -0
4 3 3 2 2 2 1 1 0 0 -0 -1 -1 -1 -1 -2 -2 -2 -2 -2 -2 -2 -2 -1 -1 -1 -1 -0 -0 -0 0 0 0 -0 -0 -1 -1 -1 -1 -1 -1 -1 -0
4 3 3 2 2 1 1 1 0 -0 -1 -1 -1 -1 -2 -2 -2 -2 -2 -2 -2 -2 -2 -1 -1 -1 -0 -0 0 0 0 0 0 -0 -0 -1 -1 -1 -1 -1 -1 -0 -0
3 3 2 2 2 2 1 1 0 -0 -1 -1 -1 -2 -2 -2 -2 -2 -3 -2 -2 -2 -2 -1 -1 -0 -0 0 0 0 0 0 0 0 -0 -1 -1 -1 -1 -1 -1 -1 -0
3 3 2 2 2 2 1 1 0 -0 -0 -1 -1 -2 -2 -2 -2 -2 -2 -2 -2 -2 -1 -1 -1 -1 -0 -0 0 0 0 0 0 0 -0 -0 -1 -1 -1 -1 -1 -1 -1
3 3 3 2 2 2 2 1 1 0 -0 -1 -1 -2 -2 -2 -2 -2 -2 -2 -2 -2 -1 -1 -1 -1 -0 -0 0 0 1 1 0 0 0 -0 -1 -1 -1 -1 -1 -1 -1
3 3 3 3 2 2 2 1 1 0 -0 -1 -1 -1 -2 -2 -2 -2 -2 -2 -2 -1 -1 -1 -1 -1 -0 0 0 1 1 1 1 1 1 0 -0 -1 -1 -1 -1 -1 -1
3 3 3 3 3 2 2 1 1 0 -0 -1 -1 -1 -1 -2 -2 -2 -2 -2 -1 -1 -1 -1 -1 -0 0 0 1 1 1 1 1 1 1 1 0 -0 -1 -1 -1 -1 -1
3 3 3 3 3 2 2 1 1 0 -0 -1 -1 -1 -1 -1 -1 -1 -1 -1 -1 -1 -1 -1 -0 -0 0 1 1 1 2 2 2 2 1 1 1 0 -0 -1 -1 -1 -1
3 3 3 3 3 2 2 1 1 0 -1 -1 -1 -1 -1 -1 -1 -1 -1 -1 -1 -1 -1 -0 -0 0 0 1 1 2 2 2 2 2 2 2 1 1 0 -0 -1 -1 -1
3 3 3 3 2 2 1 1 0 -0 -1 -1 -1 -1 -1 -1 -1 -1 -1 -1 -1 -1 -0 -0 0 0 1 1 2 2 3 3 3 3 3 2 2 2 1 1 0 -0 -1
3 3 3 2 2 1 1 0 -0 -0 -1 -1 -1 -1 -1 -1 -1 -1 -1 -1 -0 -0 0 0 1 1 1 2 2 2 3 3 3 3 3 3 2 2 2 1 1 1 0
3 3 2 2 1 1 1 0 -0 -1 -1 -1 -1 -1 -1 -1 -1 -1 -1 -0 -0 0 1 1 1 1 2 2 2 3 3 3 3 3 3 3 3 2 2 2 2 1 1
3 2 2 2 1 1 0 -0 -0 -1 -1 -1 -1 -1 -1 -1 -1 -1 -0 -0 0 0 1 1 1 1 2 2 3 3 3 4 4 4 4 4 3 3 3 3 2 2 2
2 2 1 1 1 0 0 -0 -1 -1 -1 -1 -1 -1 -1 -1 -1 -0 -0 0 0 1 1 1 1 2 2 3 3 3 3 4 4 4 4 4 4 4 3 3 3 3 3
Wind_Speed
11 11 11 10 10 10 10 9 8 8 7 8 8 8 7 7 6 6 6 5 5 5 5 5 6 6 5 5 5 5 6 6 12 13 10 10 12 15 18 21 21 20 20
11 11 11 11 11 11 10 9 9 9 7 7 7 7 7 6 5 5 5 5 5 5 6 7 8 7 8 7 6 7 8 8 9 15 14 12 14 15 16 16 17 19 18
11 12 12 11 11 11 10 8 8 8 7 6 6 6 5 5 4 4 4 4 4 5 6 7 8 9 9 9 9 9 8 9 9 13 16 14 14 14 14 15 16 13 17
11 12 11 10 10 9 8 8 7 6 6 6 5 5 4 3 3 3 3 4 5 6 7 8 8 9 10 11 9 10 10 11 12 13 14 14 13 14 11 12 12 10 12
12 12 10 9 9 8 8 7 7 6 6 5 5 4 3 2 2 2 3 4 6 8 9 9 9 12 13 11 10 11 11 11 11 12 13 13 13 12 10 8 11 11 12
11 10 9 8 8 8 7 7 7 7 6 6 5 4 4 3 5 5 5 4 6 8 10 11 11 10 12 15 16 17 17 15 14 13 12 13 14 13 11 10 10 10 7
10 8 8 7 7 7 6 6 6 5 5 5 5 4 3 4 6 7 9 6 7 8 9 9 9 10 13 10 14 18 18 20 19 14 14 13 14 12 11 10 9 9 10
8 7 6 6 7 6 6 6 5 4 4 3 3 3 2 3 6 7 10 8 8 9 9 10 10 12 11 13 14 14 14 15 15 12 11 12 12 11 9 8 9 9 9
6 5 5 6 6 6 5 4 3 3 3 3 2 3 2 4 7 9 10 8 8 10 10 11 11 11 13 15 14 13 14 13 13 15 15 13 13 12 9 7 7 7 8
5 5 5 6 6 5 5 3 3 3 3 3 3 3 3 5 8 11 11 6 8 9 10 11 13 13 15 17 13 12 12 12 12 12 11 10 9 8 9 6 6 7 6
4 6 6 6 6 5 4 3 3 3 3 3 4 4 5 6 8 10 12 8 8 9 9 10 10 15 17 17 14 10 12 13 11 10 9 8 7 6 6 6 6 5 5
6 6 6 5 4 4 5 4 3 3 3 3 4 5 5 6 7 9 12 12 11 9 9 9 10 16 17 16 12 12 15 12 7 8 8 7 6 6 7 8 6 5 5
6 6 5 5 4 3 3 3 2 2 2 2 3 4 6 7 7 10 12 14 15 10 9 14 16 16 15 11 12 15 11 7 7 7 7 7 6 7 7 6 6 6 5
6 5 4 4 3 2 1 1 1 0 0 1 3 4 6 7 7 8 9 10 12 10 10 12 14 13 11 11 11 9 7 7 6 6 6 6 6 6 6 5 4 6 5
5 4 3 2 2 1 1 2 2 3 3 2 3 4 6 8 9 12 9 8 8 8 9 6 6 9 9 9 9 9 8 7 7 6 6 6 6 6 6 6 5 4 5
4 3 2 2 2 1 1 2 3 4 5 6 5 6 6 7 11 11 12 13 13 13 8 6 8 8 9 9 9 9 8 8 7 7 6 6 7 7 7 6 5 6 6
4 4 3 2 2 2 1 2 3 4 5 5 6 7 7 10 10 11 12 13 11 9 5 6 7 8 8 9 9 8 7 8 8 7 6 6 6 6 6 7 7 7 7
3 3 3 3 2 2 2 2 1 1 3 3 5 7 10 11 10 10 11 9 7 7 6 7 7 8 8 8 9 8 9 9 8 8 7 6 5 5 6 7 7 8 8
3 3 3 2 2 2 1 1 1 0 1 2 3 5 9 10 9 9 8 5 5 6 7 7 7 8 8 8 9 9 9 8 9 8 7 7 5 5 5 6 7 9 8
3 5 3 2 1 0 1 1 1 1 1 2 4 5 7 6 5 6 5 5 6 6 6 7 7 8 8 8 9 8 9 8 9 7 7 6 5 4 5 7 7 7 8
1 1 1 1 1 1 1 1 1 1 1 2 3 4 8 5 6 6 6 6 6 6 7 7 7 8 8 8 8 9 9 8 7 7 7 6 5 5 5 6 7 8 8
0 1 1 1 2 2 2 2 1 1 1 2 3 4 8 6 5 6 6 6 6 6 6 6 6 6 7 7 8 8 8 8 8 8 7 6 5 6 6 7 8 9 9
2 3 3 3 3 4 3 2 2 2 1 2 3 4 5 5 6 6 6 7 6 7 9 8 7 6 9 9 8 7 7 8 7 7 6 5 5 6 7 9 10 10 10
3 3 3 3 3 3 3 2 2 2 2 2 3 4 4 5 6 7 7 7 7 8 10 9 9 10 13 12 11 10 9 11 9 5 3 3 5 6 7 8 8 9 9
3 3 3 3 3 3 3 3 3 3 3 3 3 4 5 5 6 7 7 7 9 9 11 11 11 12 14 15 15 15 17 16 11 6 4 5 6 6 6 6 5 5 5
4 4 3 3 3 3 3 3 3 3 3 3 4 4 5 5 6 7 7 8 8 9 11 12 14 15 15 15 16 18 17 16 14 11 8 6 6 5 5 4 5 4 3
Wind_Direction
89 91 93 93 94 96 96 95 93 89 90 92 95 94 91 87 84 85 77 62 49 25 7 348 330 321 310 305 297 286 276 270 287 295 289 288 286 288 292 292 292 290 288
95 94 92 91 91 90 90 90 92 91 92 100 103 102 99 93 86 83 70 52 34 10 351 338 327 324 311 302 295 289 286 277 282 297 301 300 292 287 287 287 290 288 286
95 95 91 90 92 93 94 94 94 96 94 95 99 103 102 97 84 71 60 38 14 349 334 325 318 316 309 304 299 293 288 288 283 293 300 300 296 293 293 290 288 285 285
94 94 94 94 96 97 96 93 90 92 91 88 90 95 95 86 69 48 30 10 347 332 323 315 310 305 297 297 299 296 296 296 294 294 296 299 298 296 292 292 294 291 287
95 94 93 94 94 92 88 85 84 83 84 82 80 73 59 42 25 21 3 345 331 325 322 318 312 309 310 311 311 308 305 301 300 298 296 298 297 299 296 291 293 296 289
94 95 96 94 92 90 89 86 82 74 68 64 57 46 29 19 9 18 7 336 325 321 320 320 317 311 315 317 315 312 310 307 304 298 296 295 298 299 297 294 293 295 293
93 94 94 94 93 93 96 87 78 68 63 56 42 34 26 13 30 22 3 347 325 319 316 315 315 313 316 311 314 314 309 304 300 298 296 297 298 302 300 298 294 294 292
89 88 95 102 101 95 89 81 72 63 58 48 35 30 37 26 22 5 350 342 327 321 316 310 308 309 312 317 320 313 309 306 301 300 294 295 298 300 298 295 295 294 289
94 96 102 109 107 99 92 81 65 61 49 38 33 29 18 343 342 343 347 335 328 324 320 318 317 314 312 317 321 314 310 309 312 307 303 300 301 302 303 305 308 313 314
93 99 104 108 109 103 94 75 58 65 55 45 31 8 345 328 329 337 343 335 329 327 322 321 319 314 314 318 320 312 311 316 317 315 313 312 311 309 309 306 309 311 315
102 101 98 98 101 99 85 71 75 72 55 32 9 346 339 331 331 334 339 342 330 323 322 322 318 314 315 316 316 309 308 313 311 310 312 312 315 319 322 317 308 305 307
109 104 101 97 97 103 97 84 73 68 51 20 358 348 342 337 332 332 334 337 336 328 323 319 314 314 317 317 318 312 314 317 316 319 323 325 324 327 328 322 314 305 291
112 108 104 97 93 107 114 106 78 59 44 4 351 343 337 337 335 334 336 336 339 336 322 318 319 319 323 324 321 321 323 324 325 331 337 337 334 328 327 327 326 324 306
127 124 119 116 112 107 115 136 147 187 321 326 328 328 328 331 338 343 339 334 333 333 327 320 319 321 330 331 330 332 334 331 330 332 336 336 340 345 346 345 339 340 339
134 137 137 147 168 197 239 237 235 240 229 252 290 299 315 324 324 325 329 330 328 324 323 324 337 341 345 344 341 340 341 344 346 346 343 345 351 358 358 354 354 352 0
139 159 184 203 220 233 276 307 284 273 286 277 275 289 297 298 314 325 332 333 333 334 338 341 342 341 341 340 339 339 341 347 346 344 346 354 1 6 7 7 10 14 17
168 190 207 221 232 241 248 279 314 337 355 2 347 341 336 331 335 337 338 334 335 345 351 343 340 339 339 337 338 341 341 341 342 343 347 353 3 14 18 20 20 21 23
188 209 215 232 238 239 240 246 257 307 339 342 339 335 342 341 340 342 343 344 349 353 347 342 339 337 337 337 338 341 341 342 346 347 350 356 9 22 28 29 29 29 27
210 224 231 239 238 236 229 218 203 266 347 339 336 338 341 338 337 344 352 357 342 341 340 338 337 335 336 336 338 340 342 344 346 347 352 359 9 26 36 36 39 35 36
238 241 224 221 224 179 163 152 121 82 28 358 348 342 342 344 348 345 348 345 342 338 337 335 334 333 335 335 337 340 343 347 350 351 350 357 12 33 44 43 44 46 43
255 273 213 166 145 137 126 119 111 97 54 1 342 338 349 347 345 344 345 344 341 337 335 332 331 332 335 336 336 339 341 343 347 349 353 1 15 38 49 51 51 55 55
108 102 96 100 99 95 98 98 104 98 66 15 353 349 354 358 353 351 348 345 342 337 333 331 329 330 331 330 329 331 333 337 343 346 352 4 23 47 56 58 60 64 63
95 97 88 82 86 94 87 83 86 85 62 27 7 1 1 359 354 352 348 345 343 344 347 345 340 337 336 329 322 317 318 322 322 322 336 7 41 62 67 69 71 73 69
87 95 96 91 87 89 87 81 76 76 68 40 20 11 3 356 352 350 349 347 348 350 353 352 346 341 340 339 335 332 328 325 321 318 341 51 74 83 83 81 81 83 81
79 87 91 91 92 92 90 83 75 71 64 45 26 11 1 357 354 352 350 351 351 353 354 355 353 349 345 343 345 345 348 359 13 26 59 81 89 93 97 97 95 95 90
72 77 79 80 85 92 97 90 80 76 65 49 33 20 10 3 357 353 352 355 354 353 354 354 353 353 353 352 351 357 7 19 30 45 66 80 83 88 97 96 98 92 83
Height
1506 1508 1511 1514 1517 1519 1521 1523 1526 1527 1528 1530 1530 1530 1530 1529 1528 1527 1526 1524 1522 1520 1518 1516 1513 1510 1508 1505 1503 1501 1498 1494 1487 1482 1481 1478 1475 1472 1468 1464 1460 1456 1452
1508 1511 1513 1516 1519 1521 1523 1525 1527 1528 1529 1529 1529 1529 1528 1527 1525 1524 1522 1520 1518 1516 1513 1511 1508 1505 1503 1500 1498 1495 1493 1489 1484 1477 1474 1471 1467 1463 1459 1455 1451 1447 1443
1511 1513 1515 1518 1520 1522 1524 1526 1527 1528 1528 1528 1528 1527 1526 1524 1523 1521 1519 1517 1515 1512 1510 1507 1504 1501 1498 1496 1493 1490 1487 1484 1479 1473 1467 1464 1460 1456 1451 1446 1443 1439 1435
1513 1515 1517 1519 1522 1524 1525 1526 1527 1527 1527 1527 1526 1525 1523 1521 1520 1518 1516 1514 1512 1510 1507 1504 1501 1497 1494 1491 1488 1485 1482 1478 1473 1468 1462 1457 1453 1449 1445 1440 1435 1432 1429
1515 1517 1519 1521 1523 1524 1525 1526 1526 1526 1526 1525 1524 1522 1521 1519 1517 1516 1514 1512 1509 1507 1504 1500 1497 1494 1491 1488 1484 1481 1477 1472 1467 1462 1457 1452 1447 1443 1439 1435 1430 1426 1423
1517 1519 1521 1523 1524 1525 1525 1526 1526 1525 1525 1523 1522 1521 1519 1517 1515 1513 1511 1509 1506 1503 1499 1496 1493 1490 1487 1484 1480 1476 1473 1468 1462 1457 1452 1447 1442 1438 1434 1430 1426 1421 1417
1519 1521 1522 1523 1524 1525 1526 1526 1525 1524 1523 1522 1520 1519 1517 1515 1514 1512 1509 1507 1503 1500 1496 1493 1489 1486 1483 1479 1475 1471 1467 1463 1458 1453 1448 1443 1438 1434 1429 1425 1421 1418 1414
1520 1522 1523 1524 1525 1526 1526 1526 1525 1523 1522 1521 1519 1517 1516 1514 1512 1509 1507 1504 1500 1497 1494 1490 1486 1483 1479 1475 1470 1466 1462 1457 1453 1449 1444 1439 1435 1430 1426 1422 1418 1413 1410
1522 1523 1525 1526 1527 1527 1526 1525 1524 1522 1521 1519 1518 1516 1514 1512 1510 1507 1503 1500 1497 1494 1491 1488 1484 1480 1476 1472 1467 1462 1458 1454 1450 1446 1441 1437 1432 1427 1423 1419 1414 1410 1406
1524 1525 1527 1527 1527 1527 1526 1525 1523 1522 1520 1519 1517 1515 1513 1511 1508 1505 1501 1497 1494 1491 1488 1485 1481 1477 1473 1469 1464 1459 1455 1451 1447 1442 1438 1434 1429 1425 1420 1416 1412 1408 1404
1526 1527 1528 1528 1528 1527 1526 1525 1523 1521 1520 1518 1516 1514 1512 1509 1506 1503 1500 1496 1492 1488 1485 1481 1478 1474 1470 1466 1462 1458 1453 1449 1445 1440 1435 1431 1427 1422 1418 1414 1411 1407 1404
1528 1529 1529 1529 1528 1527 1526 1525 1523 1521 1520 1518 1516 1514 1511 1508 1505 1502 1498 1495 1491 1487 1484 1480 1476 1472 1468 1464 1460 1456 1452 1448 1444 1439 1434 1429 1424 1420 1416 1413 1409 1407 1403
1529 1529 1530 1529 1528 1528 1526 1525 1523 1521 1519 1517 1515 1513 1510 1507 1504 1501 1497 1493 1490 1486 1483 1479 1475 1471 1467 1463 1459 1455 1451 1447 1443 1438 1434 1429 1424 1419 1415 1412 1409 1407 1404
1530 1530 1530 1530 1529 1528 1527 1525 1523 1521 1519 1517 1515 1512 1509 1506 1502 1498 1495 1492 1488 1485 1482 1478 1475 1471 1467 1464 1460 1456 1451 1447 1443 1439 1434 1430 1424 1419 1415 1412 1409 1407 1404
1530 1530 1530 1530 1529 1528 1527 1525 1523 1521 1519 1517 1514 1511 1508 1504 1501 1498 1494 1490 1487 1484 1481 1478 1475 1471 1467 1464 1460 1456 1453 1449 1444 1440 1436 1431 1426 1421 1417 1414 1411 1409 1406
1531 1531 1530 1530 1529 1528 1526 1525 1523 1521 1519 1517 1514 1511 1507 1504 1500 1497 1494 1491 1488 1485 1482 1479 1476 1472 1469 1465 1461 1458 1454 1450 1446 1442 1438 1433 1428 1424 1420 1417 1414 1412 1409
1531 1531 1530 1530 1529 1527 1526 1524 1523 1521 1519 1516 1514 1511 1507 1503 1500 1496 1493 1491 1488 1486 1483 1480 1477 1474 1471 1467 1463 1460 1456 1453 1449 1445 1440 1436 1432 1428 1424 1421 1418 1415 1412
1532 1531 1530 1529 1528 1527 1525 1523 1522 1520 1519 1516 1513 1510 1507 1503 1500 1496 1494 1491 1489 1486 1484 1481 1478 1475 1472 1469 1465 1462 1459 1456 1452 1448 1444 1440 1436 1432 1428 1425 1422 1419 1417
1531 1530 1529 1528 1527 1526 1524 1523 1521 1520 1518 1516 1513 1510 1507 1504 1500 1497 1495 1492 1490 1487 1485 1482 1480 1477 1474 1471 1468 1465 1462 1458 1455 1451 1447 1443 1439 1436 1432 1429 1426 1423 1421
1530 1529 1528 1527 1526 1525 1523 1522 1521 1519 1518 1515 1513 1510 1507 1504 1501 1498 1496 1493 1491 1489 1486 1484 1481 1478 1476 1473 1471 1468 1465 1462 1458 1455 1451 1447 1443 1440 1437 1433 1431 1428 1426
1529 1528 1527 1526 1525 1524 1523 1522 1521 1519 1518 1516 1514 1511 1508 1505 1502 1500 1497 1495 1492 1490 1487 1485 1483 1480 1478 1476 1474 1471 1468 1465 1462 1459 1455 1452 1448 1445 1442 1439 1436 1433 1431
1528 1527 1526 1526 1525 1524 1523 1522 1521 1520 1518 1517 1514 1512 1510 1507 1504 1502 1499 1497 1494 1491 1489 1487 1485 1483 1481 1479 1477 1474 1472 1469 1466 1463 1460 1457 1454 1451 1448 1445 1442 1440 1438
1528 1527 1527 1526 1525 1525 1524 1523 1522 1521 1519 1518 1516 1514 1511 1509 1506 1504 1501 1498 1496 1493 1491 1488 1487 1486 1484 1483 1481 1478 1475 1473 1470 1467 1465 1462 1460 1458 1456 1453 1451 1448 1447
1529 1528 1527 1527 1526 1525 1525 1524 1523 1522 1521 1519 1517 1515 1513 1511 1509 1506 1503 1500 1498 1495 1493 1491 1490 1489 1487 1486 1484 1482 1480 1477 1474 1472 1470 1468 1466 1465 1463 1461 1459 1457 1456
1530 1529 1528 1527 1527 1526 1525 1525 1524 1523 1522 1520 1519 1517 1515 1513 1511 1508 1506 1503 1501 1498 1496 1495 1493 1492 1491 1490 1488 1486 1484 1481 1479 1477 1475 1474 1472 1471 1469 1468 1466 1465 1464
1531 1529 1528 1528 1527 1527 1526 1526 1525 1524 1523 1521 1520 1518 1517 1515 1513 1511 1509 1506 1504 1502 1500 1499 1498 1497 1496 1494 1492 1490 1488 1486 1484 1482 1481 1479 1478 1476 1475 1474 1473 1472 1471